Total_Precipitation_Accumulation
1.64 1.65 1.65 1.58 1.57 1.56 1.65 1.70 1.69 1.46 1.19 0.93 0.78 0.67 0.78 0.84 1.08 1.06 0.92 0.94 0.85 0.71 0.62 0.56 0.58 0.61 0.71 0.80 0.95 1.12 1.28 1.31 1.23 1.13 1.08 1.05 1.04 1.14
1.41 1.45 1.49 1.50 1.56 1.56 1.62 1.69 1.66 1.54 1.36 1.11 0.92 0.81 0.87 0.82 0.95 0.92 0.98 1.12 0.95 0.79 0.68 0.61 0.57 0.57 0.58 0.58 0.60 0.60 0.66 0.72 0.75 0.80 0.81 0.82 0.88 1.00
1.06 1.10 1.17 1.24 1.33 1.38 1.49 1.57 1.60 1.54 1.29 1.14 1.00 0.90 0.95 0.99 0.99 0.94 1.00 1.02 0.93 0.86 0.73 0.63 0.60 0.57 0.58 0.58 0.58 0.53 0.52 0.52 0.56 0.62 0.69 0.70 0.67 0.65
0.81 0.88 0.93 0.99 1.10 1.18 1.25 1.34 1.47 1.50 1.39 1.24 1.10 0.99 0.91 0.95 1.11 1.15 1.13 1.07 1.05 1.13 1.02 0.85 0.74 0.66 0.62 0.62 0.64 0.60 0.55 0.53 0.51 0.53 0.57 0.62 0.68 0.67
0.53 0.58 0.67 0.75 0.89 0.98 1.03 1.11 1.27 1.31 1.38 1.28 1.21 1.13 0.98 0.92 1.05 1.07 1.17 1.34 1.24 1.31 1.44 1.25 0.98 0.82 0.71 0.70 0.74 0.71 0.64 0.57 0.52 0.52 0.58 0.63 0.62 0.66
0.50 0.50 0.53 0.55 0.63 0.74 0.87 1.05 1.22 1.35 1.39 1.32 1.27 1.23 1.14 1.05 1.12 1.18 1.28 1.38 1.42 1.29 1.33 1.30 1.24 1.11 0.93 0.83 0.85 0.88 0.85 0.77 0.69 0.65 0.63 0.64 0.62 0.61
0.47 0.51 0.53 0.49 0.49 0.54 0.55 0.73 0.95 1.18 1.30 1.36 1.36 1.37 1.30 1.23 1.15 1.22 1.31 1.46 1.58 1.58 1.49 1.34 1.30 1.17 1.05 0.96 0.91 0.93 0.97 0.96 0.91 0.81 0.75 0.74 0.70 0.67
0.51 0.55 0.53 0.48 0.53 0.51 0.49 0.52 0.62 0.78 0.96 1.09 1.18 1.23 1.27 1.35 1.45 1.45 1.45 1.53 1.60 1.60 1.48 1.51 1.46 1.34 1.17 1.00 1.00 1.02 1.04 1.06 1.03 0.95 0.85 0.77 0.75 0.75
0.48 0.62 0.68 0.62 0.61 0.65 0.66 0.60 0.54 0.53 0.69 0.87 0.99 1.04 1.11 1.22 1.46 1.50 1.49 1.51 1.44 1.49 1.36 1.43 1.40 1.28 1.19 1.15 1.16 1.10 1.11 1.06 1.04 0.99 0.94 0.87 0.81 0.81
0.44 0.56 0.81 0.86 0.75 0.70 0.75 0.85 0.77 0.61 0.61 0.66 0.81 0.91 0.96 1.13 1.46 1.67 1.62 1.42 1.37 1.42 1.34 1.35 1.31 1.20 1.14 1.12 1.16 1.08 1.06 1.01 0.97 0.96 0.92 0.88 0.86 0.86
0.38 0.50 0.67 0.82 0.75 0.71 0.71 0.78 0.82 0.72 0.66 0.68 0.65 0.72 0.84 1.01 1.27 1.52 1.65 1.59 1.43 1.38 1.25 1.18 1.21 1.21 1.23 1.19 1.13 1.11 1.05 1.04 1.02 1.00 0.99 0.95 0.92 0.97
0.24 0.41 0.56 0.55 0.52 0.59 0.70 0.81 0.90 0.74 0.65 0.74 0.73 0.75 0.77 0.95 1.27 1.47 1.59 1.58 1.47 1.43 1.33 1.23 1.23 1.25 1.41 1.37 1.20 1.13 1.08 1.11 1.11 1.07 1.05 1.05 1.10 1.08
0.19 0.33 0.40 0.37 0.37 0.45 0.57 0.70 0.83 0.69 0.71 0.86 0.90 0.87 0.94 0.99 1.11 1.24 1.44 1.56 1.46 1.31 1.25 1.36 1.42 1.33 1.28 1.29 1.27 1.19 1.12 1.06 1.05 1.05 1.06 1.06 1.09 1.06
0.20 0.26 0.29 0.26 0.28 0.33 0.38 0.49 0.60 0.68 0.77 0.91 0.98 0.94 0.90 0.96 1.02 1.05 1.15 1.27 1.27 1.21 1.13 1.09 1.18 1.14 1.08 1.02 1.01 1.07 1.10 1.08 1.05 1.03 1.04 1.16 1.12 1.12
0.18 0.22 0.24 0.26 0.29 0.30 0.32 0.39 0.54 0.73 0.90 0.91 0.84 0.81 0.83 0.89 0.90 1.01 1.09 1.13 1.16 1.17 1.07 0.92 0.92 0.98 0.97 0.93 0.86 0.87 0.97 1.03 1.00 0.94 0.94 0.98 0.99 1.04
0.18 0.19 0.20 0.25 0.29 0.29 0.34 0.46 0.62 0.82 0.90 0.81 0.76 0.66 0.67 0.82 0.88 0.89 0.94 0.96 1.02 1.08 1.00 0.93 0.90 0.88 0.89 0.86 0.82 0.79 0.79 0.85 0.90 0.93 0.91 0.88 0.88 0.91
0.17 0.24 0.28 0.34 0.39 0.46 0.56 0.65 0.67 0.71 0.77 0.69 0.73 0.67 0.63 0.70 0.74 0.75 0.77 0.74 0.75 0.76 0.79 0.81 0.83 0.81 0.80 0.82 0.83 0.79 0.79 0.75 0.74 0.84 0.91 0.90 0.85 0.86
0.20 0.28 0.36 0.44 0.50 0.58 0.64 0.65 0.65 0.67 0.70 0.66 0.65 0.64 0.59 0.59 0.61 0.62 0.66 0.69 0.72 0.70 0.64 0.61 0.63 0.69 0.74 0.80 0.79 0.74 0.77 0.78 0.79 0.81 0.82 0.81 0.75 0.75
0.18 0.29 0.48 0.54 0.52 0.58 0.63 0.61 0.53 0.47 0.48 0.50 0.49 0.48 0.46 0.47 0.51 0.53 0.54 0.61 0.63 0.59 0.60 0.60 0.60 0.63 0.65 0.60 0.57 0.56 0.66 0.70 0.72 0.76 0.78 0.75 0.70 0.67
0.14 0.21 0.34 0.38 0.41 0.47 0.48 0.45 0.39 0.33 0.33 0.34 0.34 0.35 0.36 0.39 0.40 0.43 0.44 0.44 0.50 0.50 0.50 0.52 0.53 0.55 0.58 0.58 0.53 0.46 0.48 0.55 0.59 0.63 0.65 0.68 0.71 0.81
0.14 0.19 0.24 0.27 0.28 0.28 0.28 0.29 0.29 0.30 0.30 0.30 0.31 0.33 0.34 0.35 0.34 0.34 0.37 0.40 0.41 0.41 0.43 0.43 0.42 0.49 0.53 0.59 0.57 0.45 0.40 0.46 0.51 0.52 0.58 0.67 0.67 0.62
0.13 0.15 0.17 0.17 0.18 0.19 0.21 0.24 0.26 0.29 0.31 0.31 0.30 0.32 0.34 0.35 0.33 0.32 0.32 0.33 0.35 0.38 0.38 0.39 0.42 0.46 0.50 0.57 0.53 0.45 0.41 0.42 0.47 0.57 0.58 0.59 0.55 0.51
0.15 0.14 0.15 0.16 0.17 0.19 0.23 0.24 0.25 0.29 0.31 0.32 0.33 0.34 0.36 0.36 0.36 0.36 0.35 0.35 0.35 0.38 0.40 0.42 0.43 0.46 0.48 0.48 0.47 0.45 0.43 0.43 0.46 0.49 0.49 0.52 0.50 0.46